Weather Roundup
Issued by NWS

Home | Current Version | Previous Version | Graphics & Text | Print | Product List | Glossary Off
Versions: 1 2 3 4 5 6 7 8 9 10 11 12 13 14 15 16 17 18 19 20 21 22 23 24 25 26 27 28 29 30 31 32 33 34 35 36 37 38 39 40 41 42 43 44 45 46 47 48 49 50

000
NZUS93 KARX 312159
HRRWXR

CURRENT HOURLY OBSERVATIONS ACROSS
MUCH OF THE UPPER MISSISSIPPI VALLEY
NATIONAL WEATHER SERVICE LA CROSSE WI
500 PM CDT FRI JUL 31 2015


...SOUTHEAST MINNESOTA...


CITY           SKY/WX    TMP DP  RH WIND       PRES   REMARKS
ROCHESTER      SUNNY     78  57  48 NW16      30.04F
ROCHESTER/MAYO FAIR      79  51  36 W17G26    30.03S
WINONA         SUNNY     81  50  34 NW13G18   29.99F
AUSTIN         SUNNY     81  55  41 NW12G17   30.05F
ALBERT LEA     SUNNY     81  57  44 W6        30.06F
DODGE CENTER   SUNNY     79  52  38 NW16G24   30.05S
PRESTON        SUNNY     77  54  44 NW14G22   30.04F
OWATONNA       SUNNY     79  52  38 W16       30.05F
FARIBAULT      SUNNY     79  57  47 W13G18    30.04F
$$

...ELSEWHERE IN MINNESOTA...


CITY           SKY/WX    TMP DP  RH WIND       PRES   REMARKS
MINNEAPOLIS    MOSUNNY   82  52  35 NW18G25   30.00F
INTNL FALLS    MOSUNNY   73  51  46 W17G29    29.90S
DULUTH         MOSUNNY   78  50  37 NW20G26   29.93S
RED WING       SUNNY     82  46  28 NW14      29.98F
REDWOOD FALLS  SUNNY     83  56  39 W9        30.06F
MANKATO        SUNNY     81  54  39 NW15      30.05F
WORTHINGTON    SUNNY     81  54  39 N5        30.09F
FAIRMONT       SUNNY     81  54  39 NW10      30.07F
$$

...SOUTHWEST WISCONSIN...


CITY           SKY/WX    TMP DP  RH WIND       PRES   REMARKS
LA CROSSE      SUNNY     83  51  33 NW13      29.98F
PRAIRIE DU CHI SUNNY     84  43  23 NW20      30.00F
BOSCOBEL       SUNNY     85  53  33 W9        30.00S
LONE ROCK      NOT AVBL
PLATTEVILLE    SUNNY     82  50  33 NW15G23   30.01S
FORT MC COY    SUNNY     81  44  27 NW16G30   29.99S
VIROQUA        FAIR      78  52  39 NW13      30.02S
WIS DELLS      MOSUNNY   82  42  23 NW20G25   29.97S
$$

...ELSEWHERE IN WISCONSIN...


CITY           SKY/WX    TMP DP  RH WIND       PRES   REMARKS
MILWAUKEE      MOSUNNY   82  47  29 NW18G28   29.93S
MADISON        MOSUNNY   80  49  33 NW12G26   29.96S
GREEN BAY      SUNNY     81  54  39 W15       29.88S
EAU CLAIRE     NOT AVBL
BLACK RVR FLS  FAIR      82  46  28 W13       29.98S
MEDFORD        MOSUNNY   75  53  46 W15G26    29.96F
WAUSAU         MOSUNNY   79  48  33 W18       29.92F
WIS RAPIDS     MOSUNNY   80  48  32 NW21G30   29.97S
MARSHFIELD     PTSUNNY   79  50  36 NW17G26   29.96F
RICE LAKE      MOSUNNY   75  50  41 W10G18    29.99F
$$

...NORTHEAST IOWA...


CITY           SKY/WX    TMP DP  RH WIND       PRES   REMARKS
DECORAH        SUNNY     79  54  41 NW17G24   30.03F
MASON CITY     SUNNY     82  58  43 NW14      30.07F
CHARLES CITY   SUNNY     79  57  47 NW15      30.07S
OELWEIN        SUNNY     81  59  47 NW9G18    30.06F
$$

...ELSEWHERE IN IOWA...


CITY           SKY/WX    TMP DP  RH WIND       PRES   REMARKS
DES MOINES     PTSUNNY   87  65  47 NE6       30.05F
IOWA CITY      SUNNY     85  60  42 NW15      30.04F
FORT DODGE     SUNNY     82  61  47 NE5       30.09S
$$

...NORTHERN ILLINOIS...


CITY           SKY/WX    TMP DP  RH WIND       PRES   REMARKS
CHICAGO-OHARE  SUNNY     86  48  26 NW21G31   29.93S
CHICAGO-MIDWAY MOSUNNY   88  49  25 NW17G30   29.93F
MOLINE         SUNNY     87  53  31 NW16G25   30.01S
ROCKFORD       SUNNY     85  49  28 NW18G30   29.98F
PEORIA         SUNNY     88  57  34 NW8       30.01F
$$

NOTE: "FAIR" INDICATES FEW OR NO CLOUDS BELOW 12,000 FEET WITH NO
SIGNIFICANT WEATHER AND/OR OBSTRUCTIONS TO VISIBILITY. WIND
SPEEDS ARE IN MILES-PER-HOUR.



USA.gov is the U.S. government's official web portal to all federal, state and local government web resources and services.